Flag for Brazil

Past Weather in Salvador, Bahia, Brazil — Yesterday and Last 2 Weeks

Now
79 °F

Clear.


Feels Like: 81 °F
Forecast: 81 / 76 °F
Wind: 8 mph from Southeast

Location: Salvador Aeroporto
Current Time: Sep 27, 2020 at 7:02:12 pm
Latest Report: Sep 27, 2020 at 6:00 pm
Visibility: 10 mi
Pressure29.95 "Hg
Humidity: 70%
Dew Point: 68 °F
Location of SalvadorLocation

Past Weather in Salvador — Graph

°F

Salvador Temperature Yesterday

Maximum temperature yesterday: 82 °F (at 12:00 pm)
Minimum temperature yesterday: 73 °F (at 12:00 am)
Average temperature yesterday: 78 °F

High & Low Weather Summary for the Past Weeks

 TemperatureHumidityPressure
High84 °F (Sep 22, 1:00 pm)100% (Sep 22, 12:00 am)30.15 "Hg (Sep 22, 12:00 am)
Low68 °F (Sep 17, 5:00 am)58% (Sep 17, 8:00 am)29.92 "Hg (Sep 20, 2:00 pm)
Average78 °F76%30.04 "Hg
* Reported Sep 12 6:00 pm — Sep 27 6:00 pm, Salvador. Weather by CustomWeather, © 2020

Note: Actual official high and low records may vary slightly from our data, if they occured in-between our weather recording intervals... More about our weather records

Salvador Weather History for the Previous 24 Hours

Scroll right to see more
 ConditionsComfort  
Time TempWeatherWind HumidityBarometerVisibility
6:00 pm
Sun, Sep 27
79 °FClear.8 mph70%29.95 "Hg10 mi
5:00 pm81 °FSunny.9 mph62%29.95 "Hg10 mi
4:00 pm81 °FSunny.9 mph70%29.92 "Hg10 mi
3:00 pm81 °FPassing clouds.9 mph66%29.92 "HgN/A
2:00 pm81 °FPassing clouds.10 mph70%29.95 "HgN/A
1:00 pm81 °FPassing clouds.10 mph66%29.98 "HgN/A
12:00 pm82 °FPassing clouds.10 mph62%30.01 "HgN/A
11:00 am81 °FPassing clouds.9 mph66%30.01 "HgN/A
10:00 am81 °FPassing clouds.10 mph70%30.04 "HgN/A
9:00 am81 °FScattered clouds.13 mph70%30.04 "HgN/A
8:00 am81 °FScattered clouds.9 mph70%30.01 "HgN/A
7:00 am77 °FPassing clouds.6 mph79%30.01 "HgN/A
6:00 am77 °FPassing clouds.7 mph74%29.98 "HgN/A
5:00 am77 °FPassing clouds.8 mph74%29.98 "HgN/A
4:00 am77 °FPassing clouds.7 mph74%29.95 "HgN/A
3:00 am77 °FPassing clouds.7 mph74%29.95 "HgN/A
2:00 am77 °FPassing clouds.7 mph74%29.98 "HgN/A
1:00 am77 °FPassing clouds.8 mph74%29.98 "HgN/A
12:00 am77 °FPassing clouds.9 mph74%30.01 "HgN/A
11:00 pm
Sat, Sep 26
77 °FPassing clouds.9 mph74%30.01 "HgN/A
10:00 pm77 °FPassing clouds.8 mph74%30.01 "HgN/A
9:00 pm77 °FPassing clouds.8 mph74%30.01 "HgN/A
8:00 pm79 °FPassing clouds.8 mph70%30.01 "HgN/A
7:00 pm79 °FPassing clouds.8 mph70%29.98 "HgN/A
Weather by CustomWeather, © 2020

See weather overview